Massena, NY

8:07 PM EDT on May 25, 2017 (GMT -0400)
Massena International-Richards

Weather History for KMSS - January, 2013

Change the Weather History Date:

Tuesday, January 1, 2013

  Actual Average Record
Temperature  
Mean Temperature 13 °F 16 °F  
Max Temperature 33 °F 25 °F 56 °F (1966)
Min Temperature -7 °F 7 °F -27 °F (1968)
Degree Days  
Heating Degree Days 52 49  
Month to date heating degree days 52 49  
Since 1 July heating degree days 2838 3148  
Cooling Degree Days 0 0  
Month to date cooling degree days 0  
Year to date cooling degree days 0  
Moisture  
Dew Point 6 °F    
Average Humidity 76    
Maximum Humidity 90    
Minimum Humidity 61    
Precipitation  
Precipitation T in 0.07 in 0.63 in (1964)
Month to date precipitation T 0.07  
Year to date precipitation T 0.07  
Sea Level Pressure  
Sea Level Pressure 29.92 in    
Wind  
Wind Speed 10 mph (West)    
Max Wind Speed 25 mph    
Max Gust Speed 33 mph    
Visibility 9 miles    
Events Snow    
T = Trace of Precipitation, MM = Missing Value Source: NWS Daily Summary

Daily Weather History Graph

Daily Weather History Graph

Search for Another Location

Airport or City:

Trip Planner

Search our weather history database for the weather conditions in past years. The results will help you decide how hot, cold, wet, or windy it might be!

Date:

Astronomy

Jan. 01, 2013 Rise Set
Actual Time 7:37 AM EST 4:29 PM EST
Civil Twilight 7:03 AM EST 5:02 PM EST
Nautical Twilight 6:26 AM EST 5:39 PM EST
Astronomical Twilight 5:51 AM EST 6:15 PM EST
Moon 9:10 PM EST (1/1) 9:37 AM EST (1/1)
Length of Visible Light 9h 58m
Length of Day
8h 51m
Waning Gibbous, 83% of the Moon is Illuminated
Jan 1
Waning Gibbous
Jan 4
Last Quarter
Jan 11
New
Jan 18
First Quarter
Jan 26
Full

Hourly Weather History & Observations

Time (EST) Temp. Windchill Dew Point Humidity Pressure Visibility Wind Dir Wind Speed Gust Speed Precip Events Conditions
12:11 AM 33.8 °F 24.8 °F 26.6 °F 75% 29.70 in 9.0 mi West 12.7 mph - N/A   Overcast
12:42 AM 32.0 °F 19.5 °F 26.6 °F 80% 29.71 in 5.0 mi West 21.9 mph 27.6 mph 0.00 in Snow Light Snow
12:53 AM 30.9 °F 18.4 °F 24.1 °F 76% 29.74 in 4.0 mi West 20.7 mph 28.8 mph 0.00 in Snow Light Snow
1:03 AM 30.2 °F 17.8 °F 24.8 °F 80% 29.73 in 2.5 mi West 19.6 mph 29.9 mph 0.00 in Snow Light Snow
1:10 AM 30.2 °F 18.1 °F 23.0 °F 75% 29.73 in 4.0 mi West 18.4 mph 26.5 mph 0.00 in Snow Light Snow
1:53 AM 26.1 °F 13.1 °F 19.9 °F 78% 29.79 in 5.0 mi NW 17.3 mph 25.3 mph 0.00 in Snow Light Snow
2:21 AM 24.8 °F 11.9 °F 17.6 °F 74% 29.80 in 3.0 mi NW 16.1 mph 28.8 mph 0.00 in Snow Light Snow
2:53 AM 21.9 °F 9.2 °F 14.0 °F 72% 29.84 in 10.0 mi WNW 13.8 mph 19.6 mph 0.00 in   Overcast
3:53 AM 19.9 °F 5.2 °F 10.0 °F 65% 29.87 in 10.0 mi WNW 17.3 mph 24.2 mph N/A   Overcast
4:53 AM 15.1 °F -0.1 °F 6.1 °F 68% 29.91 in 9.0 mi WNW 15.0 mph 25.3 mph N/A   Overcast
5:53 AM 12.2 °F -1.0 °F 3.2 °F 67% 29.92 in 10.0 mi WNW 10.4 mph 19.6 mph N/A   Overcast
6:53 AM 12.0 °F -1.3 °F 3.9 °F 70% 29.96 in 10.0 mi WNW 10.4 mph - N/A   Overcast
7:53 AM 10.9 °F -0.8 °F 3.0 °F 70% 29.98 in 10.0 mi West 8.1 mph - N/A   Overcast
8:53 AM 9.0 °F -4.2 °F 1.0 °F 70% 29.99 in 10.0 mi West 9.2 mph - N/A   Clear
9:53 AM 10.9 °F -6.5 °F 1.0 °F 64% 30.00 in 10.0 mi WNW 17.3 mph 21.9 mph N/A   Clear
10:53 AM 10.9 °F -5.4 °F 1.0 °F 64% 30.01 in 10.0 mi West 15.0 mph - N/A   Clear
11:53 AM 10.9 °F -3.4 °F 1.0 °F 64% 29.99 in 10.0 mi West 11.5 mph - N/A   Clear
12:53 PM 10.4 °F -6.6 °F 1.4 °F 67% 29.97 in 10.0 mi WNW 16.1 mph - N/A   Clear
1:53 PM 12.0 °F -3.4 °F 1.0 °F 61% 29.99 in 10.0 mi West 13.8 mph - N/A   Clear
2:53 PM 10.9 °F -2.6 °F 1.0 °F 64% 29.99 in 10.0 mi WSW 10.4 mph - N/A   Clear
3:53 PM 10.9 °F -3.4 °F -0.9 °F 59% 29.99 in 10.0 mi West 11.5 mph - N/A   Clear
4:53 PM 8.1 °F -3.2 °F -2.0 °F 64% 30.00 in 10.0 mi West 6.9 mph - N/A   Clear
5:53 PM -0.0 °F - -7.1 °F 72% 30.01 in 10.0 mi Calm Calm - N/A   Clear
6:53 PM -0.9 °F - -7.1 °F 75% 30.03 in 10.0 mi Calm Calm - N/A   Clear
7:53 PM -4.0 °F - -8.0 °F 83% 30.02 in 10.0 mi Calm Calm - N/A   Clear
8:53 PM -7.1 °F - -9.9 °F 87% 30.01 in 10.0 mi Calm Calm - N/A   Partly Cloudy
9:53 PM 3.0 °F -8.0 °F -2.0 °F 80% 30.00 in 10.0 mi SW 5.8 mph - N/A   Mostly Cloudy
10:53 PM 3.9 °F -8.2 °F -0.9 °F 80% 30.01 in 10.0 mi SW 6.9 mph - N/A   Overcast
11:53 PM 6.1 °F -5.6 °F 1.0 °F 80% 30.00 in 8.0 mi SW 6.9 mph - N/A   Overcast